GAP2148 RPVI-RPLL

Flight info

Callsign GAP2148
Flight time N/A
Altitude 32000
Route LAMBO1N LAMBO B472 IBAGO IBAGO5R
Aircraft B738/M-SDE2E3FGHIRWXY/LB1

Departure

Time 2026-05-07 15:09
Airport Iloilo International Airport (RPVI)

Arrival

Time N/A
Airport Ninoy Aquino International Airport (RPLL)
Time Latitude Longitude Altitude Speed Heading
2026-05-07 14:54 10.83118 122.49641 139 ft 0 kts 111°
2026-05-07 14:58 10.83118 122.49640 139 ft 1 kts 111°
2026-05-07 14:58 10.83123 122.49625 139 ft 2 kts 110°
2026-05-07 14:58 10.83129 122.49612 139 ft 2 kts 111°
2026-05-07 14:58 10.83134 122.49597 138 ft 2 kts 111°
2026-05-07 14:59 10.83141 122.49584 138 ft 2 kts 137°
2026-05-07 14:59 10.83153 122.49577 138 ft 2 kts 167°
2026-05-07 14:59 10.83167 122.49576 139 ft 0 kts 196°
2026-05-07 14:59 10.83173 122.49578 139 ft 1 kts 202°
2026-05-07 15:00 10.83175 122.49579 139 ft 0 kts 201°
2026-05-07 15:01 10.83174 122.49579 139 ft 0 kts 201°
2026-05-07 15:01 10.83156 122.49572 138 ft 5 kts 200°
2026-05-07 15:01 10.83136 122.49565 138 ft 0 kts 200°
2026-05-07 15:01 10.83136 122.49564 138 ft 0 kts 200°
2026-05-07 15:03 10.83134 122.49564 138 ft 1 kts 200°
2026-05-07 15:03 10.83091 122.49548 137 ft 10 kts 199°
2026-05-07 15:04 10.83035 122.49495 137 ft 13 kts 259°
2026-05-07 15:04 10.83063 122.49387 137 ft 15 kts 290°
2026-05-07 15:04 10.83070 122.49369 137 ft 0 kts 290°
2026-05-07 15:05 10.83072 122.49362 137 ft 3 kts 290°
2026-05-07 15:05 10.83088 122.49310 137 ft 8 kts 276°
2026-05-07 15:06 10.83061 122.49249 137 ft 12 kts 214°
2026-05-07 15:06 10.82972 122.49213 137 ft 15 kts 199°
2026-05-07 15:06 10.82857 122.49171 137 ft 19 kts 199°
2026-05-07 15:06 10.82706 122.49115 135 ft 26 kts 201°
2026-05-07 15:07 10.82521 122.49048 134 ft 30 kts 201°
2026-05-07 15:07 10.82333 122.48975 134 ft 17 kts 209°
2026-05-07 15:07 10.82264 122.48943 134 ft 9 kts 150°
2026-05-07 15:07 10.82296 122.48977 134 ft 10 kts 354°
2026-05-07 15:08 10.82361 122.48988 134 ft 8 kts 19°
2026-05-07 15:08 10.82424 122.49012 134 ft 15 kts 20°
2026-05-07 15:08 10.82765 122.49139 136 ft 89 kts 20°
2026-05-07 15:08 10.83566 122.49435 141 ft 151 kts 20°
2026-05-07 15:09 10.84627 122.49805 556 ft 169 kts 20°
2026-05-07 15:09 10.85717 122.50213 1347 ft 168 kts 21°
2026-05-07 15:09 10.86838 122.50648 1866 ft 179 kts 20°
2026-05-07 15:09 10.88074 122.51110 2049 ft 201 kts 20°
2026-05-07 15:10 10.89481 122.51634 2160 ft 230 kts 20°
2026-05-07 15:10 10.91027 122.52209 2660 ft 245 kts 19°
2026-05-07 15:10 10.92661 122.52785 3285 ft 254 kts 13°
2026-05-07 15:10 10.94432 122.52770 3946 ft 261 kts 341°
2026-05-07 15:11 10.95904 122.51760 4734 ft 263 kts 313°
2026-05-07 15:11 10.97103 122.50372 5482 ft 267 kts 316°
2026-05-07 15:11 10.98523 122.49133 6232 ft 269 kts 322°
2026-05-07 15:11 10.99987 122.47952 6986 ft 272 kts 321°
2026-05-07 15:12 11.01456 122.46770 7728 ft 276 kts 321°
2026-05-07 15:12 11.02967 122.45568 8478 ft 279 kts 321°
2026-05-07 15:12 11.04506 122.44348 9226 ft 282 kts 321°
2026-05-07 15:12 11.06052 122.43124 9964 ft 286 kts 321°
2026-05-07 15:13 11.07671 122.41843 10332 ft 305 kts 321°
2026-05-07 15:13 11.09390 122.40483 10497 ft 328 kts 321°
2026-05-07 15:13 11.11252 122.39012 10647 ft 351 kts 321°
2026-05-07 15:13 11.13261 122.37424 10748 ft 372 kts 321°
2026-05-07 15:14 11.15331 122.35802 10886 ft 389 kts 323°
2026-05-07 15:14 11.17705 122.34463 11416 ft 395 kts 335°
2026-05-07 15:14 11.20252 122.33371 11819 ft 404 kts 335°
2026-05-07 15:14 11.22833 122.32250 12542 ft 403 kts 335°
2026-05-07 15:15 11.25450 122.31103 12905 ft 412 kts 335°
2026-05-07 15:15 11.28058 122.29969 13654 ft 410 kts 335°
2026-05-07 15:15 11.30712 122.28817 14099 ft 416 kts 335°
2026-05-07 15:15 11.33342 122.27676 14702 ft 418 kts 335°
2026-05-07 15:16 11.36047 122.26502 15201 ft 422 kts 335°
2026-05-07 15:16 11.38716 122.25345 15736 ft 426 kts 335°
2026-05-07 15:16 11.41446 122.24160 16315 ft 427 kts 335°
2026-05-07 15:16 11.43289 122.23361 16618 ft 430 kts 335°
2026-05-07 15:17 11.46956 122.21770 17317 ft 433 kts 335°
2026-05-07 15:17 11.49746 122.20559 17601 ft 440 kts 335°
2026-05-07 15:17 11.52552 122.19342 18238 ft 439 kts 335°
2026-05-07 15:17 11.55360 122.18123 18571 ft 444 kts 335°
2026-05-07 15:18 11.58192 122.16893 19048 ft 446 kts 335°
2026-05-07 15:18 11.61067 122.15645 19516 ft 447 kts 336°
2026-05-07 15:18 11.63896 122.14416 19823 ft 453 kts 336°
2026-05-07 15:18 11.66831 122.13140 20294 ft 453 kts 336°
2026-05-07 15:19 11.69697 122.11896 20666 ft 456 kts 336°
2026-05-07 15:19 11.72616 122.10626 21044 ft 459 kts 336°
2026-05-07 15:19 11.75573 122.09341 21451 ft 461 kts 336°
2026-05-07 15:19 11.78516 122.08061 21802 ft 463 kts 336°
2026-05-07 15:20 11.81486 122.06770 22155 ft 466 kts 336°
2026-05-07 15:20 11.84448 122.05481 22494 ft 468 kts 336°
2026-05-07 15:20 11.87456 122.04172 22823 ft 470 kts 336°
2026-05-07 15:20 11.90459 122.02865 23147 ft 472 kts 336°
2026-05-07 15:21 11.93454 122.01561 23453 ft 475 kts 336°
2026-05-07 15:21 11.96509 122.00230 23758 ft 477 kts 336°
2026-05-07 15:21 11.99559 121.98902 24051 ft 479 kts 336°
2026-05-07 15:21 12.02609 121.97573 24330 ft 481 kts 336°
2026-05-07 15:22 12.05688 121.96231 24615 ft 482 kts 336°
2026-05-07 15:22 12.07747 121.95334 24790 ft 484 kts 336°
2026-05-07 15:22 12.11862 121.93539 25145 ft 486 kts 336°
2026-05-07 15:22 12.14961 121.92188 25423 ft 487 kts 336°
2026-05-07 15:23 12.17026 121.91287 25728 ft 485 kts 336°
2026-05-07 15:23 12.20123 121.89937 26170 ft 483 kts 336°
2026-05-07 15:23 12.24215 121.88151 26640 ft 482 kts 336°
2026-05-07 15:23 12.27313 121.86799 27050 ft 480 kts 336°
2026-05-07 15:24 12.30377 121.85461 27416 ft 480 kts 336°
2026-05-07 15:24 12.33424 121.84130 27777 ft 479 kts 336°
2026-05-07 15:24 12.36462 121.82803 28150 ft 478 kts 336°
2026-05-07 15:24 12.39492 121.81478 28506 ft 477 kts 336°
2026-05-07 15:25 12.42544 121.80142 28865 ft 476 kts 336°
2026-05-07 15:25 12.45557 121.78823 29213 ft 475 kts 336°
2026-05-07 15:25 12.48600 121.77490 29567 ft 475 kts 336°
2026-05-07 15:25 12.51619 121.76168 29909 ft 474 kts 336°
2026-05-07 15:26 12.54630 121.74849 30243 ft 473 kts 336°
2026-05-07 15:26 12.57644 121.73528 30582 ft 472 kts 336°
2026-05-07 15:26 12.60656 121.72208 30911 ft 471 kts 336°
2026-05-07 15:26 12.63639 121.70900 31233 ft 471 kts 336°
2026-05-07 15:27 12.66646 121.69581 31485 ft 471 kts 336°
2026-05-07 15:27 12.69671 121.68254 31738 ft 472 kts 336°
2026-05-07 15:27 12.72640 121.66951 31905 ft 473 kts 336°
2026-05-07 15:27 12.75676 121.65619 31911 ft 472 kts 336°
2026-05-07 15:28 12.80660 121.63431 31912 ft 469 kts 336°
2026-05-07 15:28 12.86614 121.60815 31912 ft 468 kts 336°
2026-05-07 15:29 12.93574 121.57757 31912 ft 469 kts 336°
2026-05-07 15:29 12.99551 121.55128 31912 ft 470 kts 336°
2026-05-07 15:30 13.05558 121.52485 31912 ft 473 kts 336°
2026-05-07 15:30 13.11610 121.49821 31912 ft 475 kts 336°
2026-05-07 15:31 13.17671 121.47153 31911 ft 475 kts 336°
2026-05-07 15:31 13.23686 121.44502 31912 ft 475 kts 336°
2026-05-07 15:32 13.29736 121.41835 31912 ft 475 kts 336°
2026-05-07 15:32 13.32777 121.40494 31532 ft 471 kts 336°
2026-05-07 15:32 13.35746 121.39184 30619 ft 472 kts 336°
2026-05-07 15:33 13.38783 121.37844 29646 ft 473 kts 336°
2026-05-07 15:33 13.41765 121.36527 28658 ft 475 kts 336°
2026-05-07 15:33 13.44801 121.35187 27587 ft 477 kts 336°
2026-05-07 15:33 13.47802 121.33862 26474 ft 475 kts 335°
2026-05-07 15:34 13.50771 121.32498 25321 ft 464 kts 332°
2026-05-07 15:34 13.53513 121.30868 24157 ft 452 kts 324°
2026-05-07 15:34 13.55880 121.28964 23600 ft 427 kts 315°
2026-05-07 15:34 13.57894 121.26794 23165 ft 402 kts 309°
2026-05-07 15:35 13.59655 121.24705 22694 ft 384 kts 309°
2026-05-07 15:35 13.61399 121.22684 22214 ft 368 kts 310°
2026-05-07 15:35 13.63058 121.20780 21755 ft 354 kts 309°
2026-05-07 15:35 13.64663 121.18922 21309 ft 342 kts 309°
2026-05-07 15:36 13.66227 121.17100 20879 ft 343 kts 309°
2026-05-07 15:36 13.67803 121.15264 20428 ft 343 kts 309°
2026-05-07 15:36 13.69371 121.13435 19987 ft 340 kts 309°
2026-05-07 15:36 13.70921 121.11626 19549 ft 337 kts 309°
2026-05-07 15:37 13.72455 121.09829 19120 ft 333 kts 313°
2026-05-07 15:37 13.73957 121.08056 18700 ft 329 kts 312°
2026-05-07 15:37 13.75473 121.06281 18282 ft 325 kts 313°
2026-05-07 15:37 13.76965 121.04550 17864 ft 322 kts 312°
2026-05-07 15:38 13.77934 121.03420 17590 ft 319 kts 312°
2026-05-07 15:38 13.79873 121.01152 17042 ft 316 kts 312°
2026-05-07 15:38 13.80846 121.00055 16771 ft 314 kts 316°
2026-05-07 15:38 13.82610 120.98734 16363 ft 312 kts 334°
2026-05-07 15:39 13.84637 120.98091 15967 ft 312 kts 351°
2026-05-07 15:39 13.87523 120.97794 15417 ft 311 kts 353°
2026-05-07 15:39 13.89654 120.97555 15012 ft 310 kts 352°
2026-05-07 15:39 13.91770 120.97313 14610 ft 308 kts 352°
2026-05-07 15:40 13.93906 120.97083 14204 ft 306 kts 352°
2026-05-07 15:40 13.95996 120.96860 13807 ft 304 kts 352°
2026-05-07 15:40 13.98090 120.96636 13407 ft 303 kts 352°
2026-05-07 15:40 13.99467 120.96491 13210 ft 300 kts 352°
2026-05-07 15:41 14.02230 120.96198 12879 ft 299 kts 352°
2026-05-07 15:41 14.04279 120.95982 12634 ft 300 kts 352°
2026-05-07 15:41 14.06369 120.95760 12382 ft 300 kts 352°
2026-05-07 15:41 14.08458 120.95539 12135 ft 303 kts 352°
2026-05-07 15:42 14.10474 120.95327 11886 ft 299 kts 352°
2026-05-07 15:42 14.12312 120.95133 11661 ft 297 kts 352°
2026-05-07 15:42 14.14323 120.94920 11415 ft 296 kts 352°
2026-05-07 15:42 14.15268 120.94820 11300 ft 297 kts 352°
2026-05-07 15:43 14.17246 120.94504 11044 ft 290 kts 340°
2026-05-07 15:43 14.19021 120.93612 10801 ft 279 kts 327°
2026-05-07 15:43 14.20681 120.92578 10546 ft 273 kts 328°
2026-05-07 15:43 14.22307 120.91622 10295 ft 268 kts 328°
2026-05-07 15:44 14.23913 120.90675 10045 ft 266 kts 328°
2026-05-07 15:44 14.25469 120.89713 9793 ft 260 kts 321°
2026-05-07 15:44 14.26598 120.88320 9535 ft 250 kts 289°
2026-05-07 15:44 14.26815 120.87182 9372 ft 243 kts 266°
2026-05-07 15:45 14.26263 120.85587 9132 ft 237 kts 233°
2026-05-07 15:45 14.25255 120.84274 8999 ft 231 kts 236°
2026-05-07 15:45 14.24145 120.82365 8990 ft 235 kts 240°
2026-05-07 15:45 14.23319 120.80902 9027 ft 234 kts 240°
2026-05-07 15:46 14.21680 120.77969 8586 ft 235 kts 240°
2026-05-07 15:46 14.20872 120.76517 8336 ft 232 kts 240°
2026-05-07 15:46 14.20062 120.75073 8087 ft 231 kts 240°
2026-05-07 15:47 14.19266 120.73672 7859 ft 223 kts 239°
2026-05-07 15:47 14.18494 120.72311 7595 ft 217 kts 239°
2026-05-07 15:47 14.17854 120.70941 7325 ft 213 kts 257°
2026-05-07 15:47 14.18036 120.69482 7076 ft 211 kts 298°
2026-05-07 15:48 14.19100 120.68420 6856 ft 220 kts 326°
2026-05-07 15:48 14.19978 120.67931 6708 ft 214 kts 335°
2026-05-07 15:48 14.21891 120.67858 6406 ft 207 kts 15°
2026-05-07 15:48 14.23309 120.68230 6193 ft 213 kts
2026-05-07 15:49 14.24782 120.68301 5941 ft 211 kts
2026-05-07 15:49 14.26202 120.68441 5692 ft 210 kts
2026-05-07 15:49 14.27662 120.68619 5438 ft 209 kts
2026-05-07 15:49 14.28632 120.68738 5270 ft 209 kts